Location: Krakow
(50.0830°N, 19.9170°E)
Time: 06:52:12
(UTC+02:00)

Tiros 1 despin weight - Pass Details

Date: 23 March 2026
Orbit: 555 x 592 km, 48.2° (Epoch: 18 April)

Event Time Altitude Azimuth Distance (km) Brightness Sun altitude
Rises 06:02:57 0° 278° (W) 2,820 ? 3.3°
Reaches altitude 10° 06:05:18 10° 273° (W) 1,914 ? 3.7°
Maximum altitude 06:09:31 48° 199° (SSW) 764 ? 4.4°
Drops below altitude 10° 06:13:42 10° 125° (SE) 1,889 ? 5.1°
Sets 06:16:00 0° 119° (ESE) 2,780 ? 5.4°
